This demonstration page uses our WeatherBlox Daily Observations layout. Learn more.

Left ArrowRight Arrow

39.51506, -84.39828

Hourly Observations for June 13, 2022

Temp ( °F °C ) Dew Point ( °F °C ) Humidity (%) Winds ( mph kmh ) Pressure ( in mb ) Visibility ( mi km ) Precip ( " mm )
12:15 am 00:15 Mostly Cloudy with Fog 70 21 N/A N/A Calm 29.89 1012 1 1 0.00 0.00
12:35 am 00:35 Cloudy with Mist and Fog 68 20 N/A N/A Calm 29.89 1012 2 3 0.00 0.00
12:55 am 00:55 Cloudy with Mist and Fog 70 21 N/A N/A Calm 29.89 1012 4 6 0.00 0.00
1:15 am 01:15 Cloudy with Haze 70 21 N/A N/A Calm 29.89 1012 5 8 0.00 0.00
1:35 am 01:35 Cloudy with Mist and Fog 70 21 N/A N/A Calm 29.89 1012 4 6 0.00 0.00
1:55 am 01:55 Cloudy with Mist and Fog 70 21 N/A N/A Calm 29.88 1012 4 6 0.00 0.00
2:15 am 02:15 Mostly Cloudy with Mist and Fog 70 21 N/A N/A Calm 29.88 1012 4 6 0.00 0.00
2:35 am 02:35 Hazy 70 21 N/A N/A Calm 29.88 1012 4 6 0.00 0.00
2:55 am 02:55 Mostly Cloudy with Mist and Fog 68 20 N/A N/A Calm 29.88 1012 1 2 0.00 0.00
3:15 am 03:15 Mostly Cloudy with Mist and Fog 68 20 N/A N/A Calm 29.88 1012 2 3 0.00 0.00
3:35 am 03:35 Mostly Cloudy with Fog 66 19 N/A N/A Calm 29.89 1012 0 0 0.00 0.00
3:55 am 03:55 Cloudy with Fog 68 20 N/A N/A Calm 29.88 1012 0 0 0.00 0.00
4:15 am 04:15 Cloudy with Fog 66 19 N/A N/A Calm 29.89 1012 0 0 0.00 0.00
4:35 am 04:35 Mostly Cloudy with Mist and Fog 68 20 N/A N/A Calm 29.88 1012 1 1 0.00 0.00
4:55 am 04:55 Clear with Mist and Fog 66 19 N/A N/A Calm 29.90 1012 4 6 0.00 0.00
5:15 am 05:15 Mostly Cloudy with Fog 66 19 N/A N/A Calm 29.91 1013 1 1 0.00 0.00
5:35 am 05:35 Clear with Mist and Fog 66 19 N/A N/A Calm 29.92 1013 3 5 0.00 0.00
5:55 am 05:55 Clear with Mist and Fog 66 19 N/A N/A Calm 29.92 1013 3 4 0.00 0.00
6:15 am 06:15 Mostly Cloudy with Mist and Fog 66 19 N/A N/A N 3 6 29.93 1013 2 3 0.00 0.00
6:35 am 06:35 Cloudy with Mist and Fog 66 19 N/A N/A Calm 29.93 1013 2 3 0.00 0.00
6:55 am 06:55 Mostly Cloudy with Mist and Fog 68 20 N/A N/A Calm 29.92 1013 3 5 0.00 0.00
7:15 am 07:15 Partly Cloudy with Mist and Fog 68 20 N/A N/A Calm 29.92 1013 3 5 0.00 0.00
7:35 am 07:35 Sunny with Mist and Fog 70 21 N/A N/A Calm 29.93 1014 4 6 0.00 0.00
7:55 am 07:55 Hazy 72 22 N/A N/A Calm 29.93 1014 5 8 0.00 0.00
8:15 am 08:15 Hazy 72 22 N/A N/A Calm 29.94 1014 5 8 0.00 0.00
8:35 am 08:35 Sunny 73 23 N/A N/A Calm 29.94 1014 7 11 0.00 0.00
8:55 am 08:55 Sunny 75 24 74 23.3 96 96 Calm 29.94 1014 10 16 0.00 0.00
9:15 am 09:15 Sunny 78 25.6 74 23.2 87 87 Calm 29.92 1013 7 11 0.00 0.00
9:35 am 09:35 Sunny 79 26.3 74 23.2 83 83 Calm 29.92 1013 7 11 0.00 0.00
9:55 am 09:55 Sunny 81 27.2 74 23.3 79 79 SE 5 7 29.92 1013 10 16 0.00 0.00
10:15 am 10:15 Sunny 82 27.9 73 22.8 74 74 Calm 29.92 1013 10 16 0.00 0.00
10:35 am 10:35 Sunny 83 28.4 74 23.4 74 74 ESE 5 7 29.92 1013 10 16 0.00 0.00
10:55 am 10:55 Sunny 84 28.8 74 23.1 71 71 S 5 7 29.91 1013 10 16 0.01 0.25
11:15 am 11:15 Partly Cloudy 85 29.3 74 23.6 71 71 SSE 6 9 29.91 1013 10 16 0.00 0.00
11:35 am 11:35 Partly Cloudy 86 30 74 23.4 68 68 ESE 6 9 29.92 1013 10 16 0.00 0.00
11:55 am 11:55 Cloudy with Haze 86 30 75 23.7 69 69 SE 8 13 29.92 1013 5 8 0.00 0.00
12:15 pm 12:15 Cloudy 85 29.7 74 23.3 69 69 SSE 7 11 29.93 1014 10 16 0.00 0.00
12:35 pm 12:35 Cloudy 87 30.6 74 23.6 66 66 SSE 6 9 29.92 1013 7 11 0.00 0.00
12:55 pm 12:55 Cloudy 86 29.9 74 23.4 68 68 ESE 5 7 29.92 1013 10 16 0.00 0.00
1:15 pm 13:15 Mostly Cloudy with Haze 89 31.4 76 24.3 66 66 SSW 5 7 29.91 1013 5 8 0.00 0.00
1:35 pm 13:35 Mostly Cloudy with Haze 87 30.7 76 24.2 68 68 ESE 6 9 29.91 1013 5 8 0.00 0.00
1:55 pm 13:55 Cloudy 88 31 75 24 66 66 SE 5 7 29.91 1013 10 16 0.00 0.00
2:15 pm 14:15 Cloudy 88 31.3 76 24.2 66 66 S 7 11 29.91 1013 10 16 0.00 0.00
2:35 pm 14:35 Mostly Cloudy with Haze 88 31.2 76 24.7 68 68 SSW 5 7 29.91 1013 7 11 0.00 0.00
2:55 pm 14:55 Hazy 90 32 76 24.3 64 64 SSE 7 11 29.89 1012 7 11 0.00 0.00
3:15 pm 15:15 Partly Cloudy 90 32.2 77 24.9 65 65 ESE 7 11 29.87 1011 7 11 0.00 0.00
3:35 pm 15:35 Mostly Cloudy 91 32.6 76 24.7 63 63 S 6 9 29.87 1011 10 16 0.00 0.00
3:55 pm 15:55 Mostly Cloudy with Nearby Thunderstorms 92 33.1 76 24.3 60 60 S 6 9 29.85 1011 7 11 0.00 0.00
4:15 pm 16:15 Mostly Cloudy 92 33.1 77 24.9 62 62 SSE 6 9 29.87 1011 7 11 0.00 0.00
4:35 pm 16:35 Mostly Cloudy 90 32.3 77 25 65 65 SSW 7 11 29.87 1011 7 11 0.00 0.00
4:55 pm 16:55 Mostly Cloudy 90 32 77 25.1 67 67 S 8 13 29.88 1012 7 11 0.00 0.00
5:15 pm 17:15 Partly Cloudy with Nearby Thunderstorms 87 30.5 79 26.3 78 78 Calm 29.86 1011 7 11 0.00 0.00
5:35 pm 17:35 Mostly Cloudy with Strong Thunderstorms 84 28.8 82 27.7 94 94 W 9 15 29.90 1013 2 3 0.00 0.00
5:55 pm 17:55 Cloudy with Strong Thunderstorms 70 21 67 19.5 91 91 W 26 43 29.98 1015 1 2 0.00 0.00
6:15 pm 18:15 Partly Cloudy with Strong Thunderstorms 71 21.5 66 19 86 86 SE 7 11 29.89 1012 7 11 0.00 0.00
6:35 pm 18:35 Partly Cloudy with Thunderstorms 69 20.5 69 20.3 99 99 undefined N/A 29.89 1012 1 2 0.00 0.00
6:55 pm 18:55 undefined N/A N/A N/A undefined N/A N/A N/A 0.00 0.00
7:15 pm 19:15 undefined N/A N/A N/A undefined N/A N/A N/A 0.00 0.00
7:35 pm 19:35 undefined N/A N/A N/A undefined N/A N/A N/A 0.00 0.00
7:55 pm 19:55 undefined N/A N/A N/A undefined N/A N/A N/A 0.00 0.00

Powered by AerisWeather